Location: Betz
(49.1556°N, 2.9558°E)
Time: 08:07:21
(UTC+00:00)

Mayak - Pass Details

Date: 18 September 2019
Orbit: 582 x 602 km, 97.6° (Epoch: 23 October)

Event Time Altitude Azimuth Distance (km) Brightness Sun altitude
Rises 23:19:57 0° 5° (N) 2,818 3.1 -38.9°
Reaches altitude 10° 23:22:17 10° 355° (N) 1,913 2.1 -39.0°
Enters shadow 23:22:17 10° 355° (N) 1,910 2.1 -39.0°
